weather.gov     
National Weather Service

Terminal Aerodrome Forecast
NWS Homepage
This page is being discontinued on March 12, 2014.
The same data is available at this site. Please update your bookmarks.
Thank you, and we apologize for the inconvenience.
Please send an email to SR-SRH.Webmaster@noaa.gov with any concerns.


Current Version
Previous Version:    01  02  03  04  05  06  07  08  09  10  11  12  13  14  15  16  17  18  19  20  21  22  23  24  25  26  27  28  29  
[Printable]
244
FTUS42 KGSP 241130
TAFGSP
TAF
KGSP 241130Z 2412/2512 34003KT P6SM SCT180 BKN250
     FM241400 05003KT P6SM SCT170
     FM241700 21003KT P6SM SCT160
     FM250000 00000KT P6SM SKC=




244
FTUS42 KGSP 241130
TAFGSP
TAF
KGSP 241130Z 2412/2512 34003KT P6SM SCT180 BKN250
     FM241400 05003KT P6SM SCT170
     FM241700 21003KT P6SM SCT160
     FM250000 00000KT P6SM SKC=


U.S. Dept. of Commerce
NOAA National Weather Service
1325 East West Highway
Silver Spring, MD 20910
E-mail: w-nws.webmaster@noaa.gov
Page last modified: May 16, 2007
NATIONAL WEATHER SERVICE: for Safety, for Work, for Fun - FOR LIFE